Regional Weather Roundup
Issued by NWS Charleston, WV

Home | Current Version | Previous Version | Text Only | Print | Product List | Glossary Off
Versions: 1 2 3 4 5 6 7 8 9 10 11 12 13 14 15 16 17 18 19 20 21 22 23 24 25 26 27 28 29 30 31 32 33 34 35 36 37 38 39 40 41 42 43 44 45 46 47 48 49 50

000
ASUS41 KRLX 200710
RWRRLX
West Virginia Regional Weather Roundup
National Weather Service Charleston WV
300 AM EDT MON OCT 20 2014

Note: "fair" indicates few or no clouds below 12,000 feet with no
significant weather and/or obstructions to visibility.

WVZ003-200800-
Northern Panhandle of West Virginia

CITY           SKY/WX    TMP DP  RH WIND       PRES   REMARKS
WHEELING         N/A     43  35  73 S7        30.05F
$$

WVZ009-200800-
Northwest West Virginia

CITY           SKY/WX    TMP DP  RH WIND       PRES   REMARKS
PARKERSBURG      N/A     39  37  92 CALM      30.09F
$$

WVZ006-200800-
Western West Virginia

CITY           SKY/WX    TMP DP  RH WIND       PRES   REMARKS
HUNTINGTON       N/A     39  39 100 E3        30.06F
$$

WVZ015-200800-
West Central West Virginia

CITY           SKY/WX    TMP DP  RH WIND       PRES   REMARKS
CHARLESTON     FOG       39  38  96 CALM      30.07F VSB<1/4
$$

WVZ022-031-200800-
North Central West Virginia

CITY           SKY/WX    TMP DP  RH WIND       PRES   REMARKS
CLARKSBURG       N/A     37  36  96 CALM      30.08F
MORGANTOWN       N/A     38  35  89 CALM      30.08F
$$

WVZ025-035-042-045-200800-
Southern West Virginia

CITY           SKY/WX    TMP DP  RH WIND       PRES   REMARKS
BECKLEY          N/A     40  32  73 CALM      30.06F
LOGAN            N/A     45  39  81 CALM      30.06F
BLUEFIELD        N/A     50  31  48 CALM      30.08F
LEWISBURG        N/A     35  33  93 NE5       30.10F
$$

WVZ047-200800-
Northern Mountains of West Virginia

CITY           SKY/WX    TMP DP  RH WIND       PRES   REMARKS
ELKINS           N/A     33  33 100 CALM      30.10F FOG
$$

WVZ052-200800-
Eastern Panhandle of West Virginia

CITY           SKY/WX    TMP DP  RH WIND       PRES   REMARKS
MARTINSBURG      N/A     37  33  85 CALM      30.09F
PETERSBURG       N/A    N/A N/A N/A CALM      30.10F
$$



USA.gov is the U.S. government's official web portal to all federal, state and local government web resources and services.